Regional Weather Roundup
Issued by NWS Charleston, SC

Home | Current Version | Previous Version | Text Only | Print | Product List | Glossary On
Versions: 1 2 3 4 5 6 7 8 9 10 11 12 13 14 15 16 17 18 19 20 21 22 23 24 25 26 27 28 29 30 31 32 33 34 35 36 37 38 39 40 41 42 43 44 45 46 47 48 49 50
000
ASUS42 KCHS 021527
RWRCHS

REGIONAL WEATHER ROUNDUP
NATIONAL WEATHER SERVICE CHARLESTON SC
1100 AM EDT WED SEP 02 2015

NOTE: "FAIR" INDICATES FEW OR NO CLOUDS BELOW 12,000 FEET WITH NO
SIGNIFICANT WEATHER AND/OR OBSTRUCTIONS TO VISIBILITY.

NOT ALL STATIONS ARE QUALITY CONTROLLED BY THE NATIONAL
WEATHER SERVICE. USE DATA WITH CAUTION...ESPECIALLY
DEWPOINT OBSERVATIONS.

SCZ027-030-031-034>040-042>050-021600-
...SOUTHEAST SOUTH CAROLINA...

CITY           SKY/WX    TMP DP  RH WIND       PRES   REMARKS
N CHARLESTON   PTSUNNY   86  72  62 CALM      30.10S HX  92
WATERFRONT PRK   N/A     84  76  77 VRB2      30.08R HX  93
MOUNT PLEASANT LGT RAIN  84  75  74 CALM      30.10S HX  92
JOHNS ISLAND   FAIR      88  75  66 CALM      30.09F HX  97
PINOPOLIS        N/A     84  75  74 VRB2      30.01F HX  92
MONCKS CORNER  FAIR      86  73  66 CALM      30.10R HX  93
SUMMERVILLE    FAIR      86  75  70 N3        30.10F HX  95
BEAUFORT MCAS  MOSUNNY   86  74  67 VRB3      30.09F HX  94
BEAUFORT ARPT  FAIR      84  77  79 CALM      30.09F HX  94
HILTON HEAD IS MOSUNNY   82  81  94 N7        30.11F HX  95
WALTERBORO     SUNNY     88  72  58 W3        30.10F HX  94
ALLENDALE      FAIR      86  73  66 CALM      30.09F HX  93

...SOUTHERN MIDLANDS AND PEE DEE...

CITY           SKY/WX    TMP DP  RH WIND       PRES   REMARKS
GEORGETOWN     NOT AVBL
KINGSTREE      NOT AVBL
ORANGEBURG     MOSUNNY   87  70  56 CALM      30.10F HX  92
BARNWELL       FAIR      90  72  55 CALM      30.10F HX  96
AIKEN          FAIR      86  64  48 CALM      30.14S
MANNING        FAIR      84  68  58 CALM      30.09S
COLUMBIA       PTSUNNY   87  70  56 CALM      30.09F HX  92
SUMTER         MOSUNNY   87  69  55 NW5       30.07F HX  91
FLORENCE       SUNNY     87  72  60 CALM      30.08F HX  93
MYRTLE BEACH   SUNNY     86  73  66 NW7       30.10  HX  93
N MYRTLE BEACH MOSUNNY   87  72  60 VRB3      30.08R HX  93

$$

GAZ063-065-086>088-099>101-113>116-118-119-134>141-150-021600-
...SOUTHEAST GEORGIA...

CITY           SKY/WX    TMP DP  RH WIND       PRES   REMARKS
SAVANNAH ARPT  PTSUNNY   87  76  69 CALM      30.10S HX  97
HUNTER AAF     MOSUNNY   85  81  86 VRB5      30.07F HX 101
FORT STEWART   CLOUDY    82  76  82 CALM      30.08S
STATESBORO     MOSUNNY   84  77  80 CALM      30.10S HX  93
SYLVANIA       PTSUNNY   86  77  72 E5        30.11S HX  97
CLAXTON        NOT AVBL

...CSRA...CENTRAL AND FAR SOUTHEAST GEORGIA...

CITY           SKY/WX    TMP DP  RH WIND       PRES   REMARKS
THOMSON        SUNNY     87  74  65 CALM      30.15F HX  94
AUGUSTA-BUSH   MOSUNNY   85  73  67 CALM      30.09F HX  91
AUGUSTA-DANIEL MOSUNNY   86  71  60 CALM      30.11F HX  91
SWAINSBORO     PTSUNNY   86  70  58 CALM      30.12S HX  90
VIDALIA        CLOUDY    79  75  89 CALM      30.12S
EASTMAN        LGT RAIN  76  76 100 CALM      30.15F
HAZLEHURST     PTSUNNY   84  78  81 N3        30.10S HX  95
ALMA           CLOUDY    80  75  84 CALM      30.11R
WAYCROSS       HVY RAIN  78  78 100 N6        30.10S
JESUP          LGT RAIN  82  79  89 CALM      30.11R HX  93
BAXLEY         RAIN      82  77  83 CALM      30.11R HX  91
BRUNSWICK      CLOUDY    79  75  89 CALM      30.10S
SAINT SIMONS   CLOUDY    83  77  82 CALM      30.09R HX  92

$$

SCZ027-028-034-036>038-045-046-048>050-GAZ119-141-021600-
...LAKE AND SUPPLEMENTAL COASTAL OBSERVATIONS...

STATION/POSITION TIME  TEMP    WIND        PRES    WAVE   SWELL
                       AIR SEA DIR/SP/G            HT/PER HT/PER/DIR
                 (UTC) (F)     (DEG/KT/KT) (MB)    (FT/S) (FT/S/D)
UPR LAKE MARION  NOT AVBL
WINYAH BAY       1445   83     310/  5     1018.0S
LAKE MURRAY      1400   82     280/  2/  5 1018.6F
ACE BASIN NERRS  NOT AVBL
FORT PULASKI     1500   83 83  270/  5/  6 1019.5F
SAPELO ISLAND    1500   85     330/  3     1019.0S

$$

ANZ835-935-AMZ111-154-330-350-352-354-370-450-454-472-021600-
...C-MAN AND BUOY OBSERVATIONS...

STATION/POSITION TIME  TEMP    WIND        PRES    WAVE   SWELL
                       AIR SEA DIR/SP/G            HT/PER HT/PER/DIR
                 (UTC) (F)     (DEG/KT/KT) (MB)    (FT/S) (FT/S/D)
BUOY 41004       1450   81 84  360/  6/  8 1018.9R   2/ 7   2/ 7
BUOY 41008       1450   83 84  320/  8/ 10 1018.8F   2/ 6   2/130/ 6
FOLLY BEACH CMAN 1500   84      20/  3/  4 1019.2S
CAPERS NEARSHORE 1408   81     320/  6/  8 1019.1S
FRIPP NEARSHORE  1400   82     330/  6/  8 1018.9S


STATION/POSITION TIME  TEMP    WIND        PRES    WAVE   SWELL
                       AIR SEA DIR/SP/G            HT/PER HT/PER/DIR
                 (UTC) (F)     (DEG/KT/KT) (MB)    (FT/S) (FT/S/D)
5E ST. MARYS GA  1421      85                N/A     2/ 8
FRYING PAN BUOY  1450   81 81  290/  6/  8 1019.0R   2/ 8   2/120/ 8
BUOY 41025       1450   80 84  350/  6/  8 1017.6S   2/ 9   2/ 90/ 9
CAPE LOOKOUT NC  1500   85     360/  1/  2 1017.5S
BUOY 41002       1450   82 83  280/  8/ 10 1018.6F   2/14   2/160/14
BUOY 41010       1420   84 86  210/  4/  4 1019.4R
ST AUGUSTINE FL  1500   83 83  190/  4/  5 1019.8S


$$



USA.gov is the U.S. government's official web portal to all federal, state and local government web resources and services.